Погода в Буяге

Погода в Буяге : погода сейчас, прогноз погоды и архив. Всё, что Вы хотите узнать о погоде в Буяге!

Поиск расширенной информации на нашем сайте:

Полезная информация: Содержательный информационный сайт геологии Земли http://www.geologam.ru/

Другие новости

Новости СМИ2

Главная страница сайта

Новости сайта

02.10.2013

Напоминаем, что на нашем новом сайте вы можете получить высокодетализированные прогнозы погоды по пунктам России, СНГ и мира (включающие важные для авиации метеовеличины, такие как направление и скорость ветра, видимость, явления погоды, количество и форма облачности, нижняя и верхняя граница облачности), а также ознакомиться с разнообразными материалами по авиационной метеорологии и подборкой полезных ссылок на эту тему.

Сайт Метеоцентр.Азия посвящён разработке технологий оптимизации авиаметеорологического обслуживания, включая проектирование и перспективное создание нескольких автоматизированных авиаметеорологических систем:
- система выпуска высокодетальных прогностических карт явлений погоды для нижнего воздушного пространства по России и ближнему зарубежью;
- система верификации прогнозов TAF (выпускаемых синоптиками официальных АМСГ РФ и ближнего зарубежья) и AUTOTAF (выпускаемых сайтом Метеоцентр.Азия) - выявление ошибок, онлайн-сопоставление с фактической погодой METAR, автоматическое внесение коррективов в прогнозы при резком отклонении фактической погоды от прогноза, подсчёт оправдываемости прогнозов по элементам и в целом;
- система обработки, анализа и отображения авиаметеорологической информации для применения провайдерами метеорологической информации.

Рекомендуем: Вшэ в праге высшая школа экономики прага.

Погода в Буяге - сегодня

Время (UTC), дата Ветер
(°,м/с) 
Видим.   Явления Облачность Т
(°С)
Тd
(°С)
f(%) Тe
(°С)
Pmin
(гПа)
dP
(гПа)
Po
(мм)
O2
(г/м3)
Тmin Tmax R s Состояние
почвы
21 27.03.17 тихо ()   20000 м    10/0 средняя, верхняя 
[Ac trans|Ci fib]
-11.6 -12.9 90 -12  1015.3  1.2  734  310           
00 28.03.17 тихо ()   20000 м    10/1 1000 м средняя, верхняя 
[Sc|Ac trans|Ci fib]
-6.7 -9.1 83 -7  1017.3  2.6  736  305  -12.4      43  равномерный
мокрый или
старый снег
100% 
03 28.03.17 320 (СЗ) 20000 м    10/6 600 м верхняя 
[Cu Sc|Ci fib]
+0.9 -10.2 43 1017.9  1.5  737  297           
06 28.03.17 320 (СЗ) 20000 м    8/3 600 м верхняя 
[Cu Sc|Ci fib]
+2 -10.7 38 +1  1019.1  0.8  738  296           
09 28.03.17 320 (СЗ) 20000 м    1/1 600 м 
[Cu Sc]
+2.2 -10.8 38 +3  1019.8  1.2  739  296           
12 28.03.17 тихо ()   20000 м    ясно 
-6.6 -16.2 46 -7  1023  2.1  741  307    +2.5       
15 28.03.17 тихо ()   20000 м    ясно 
-14.9 -16.9 85 -15  1026  1.6  742  318           
18 28.03.17 тихо ()   20000 м    ясно 
-17.8 -19.7 85 -18  1027.7  1.2  743  322           
21 28.03.17 тихо ()   20000 м    ясно 
-18.4 -20.3 85 -18  1029.8  744  323           
00 29.03.17 тихо ()   20000 м    1/0 верхняя 
[Ci fib]
-15.3 -18.7 75 -15  1030  0.7  745  319  -18.7      43  равномерный
мокрый или
старый снег
100% 
03 29.03.17 270 (З) 20000 м    4/3 600 м кучево-дожд., верхняя 
[Cb cap|Ci fib]
+0.5 -7.3 56 -2  1026.4  -1.4  744  300           
06 29.03.17 320 (СЗ) 20000 м    8/6 600 м кучево-дожд., верхняя 
[Cb cap|Ci fib]
+0.8 -10.4 43 1025.2  -1.1  743  299           
09 29.03.17 320 (СЗ) 20000 м    8/5 600 м кучево-дожд., средняя, верхняя 
[Cb cap|Ac trans|Ci fib]
+1.1 -9.4 45 1025  -0.2  743  299           
12 29.03.17 тихо ()   20000 м    10/10 1000 м 
[Sc]
-4.2 -9.2 68 -4  1026.4  0.6  743  305    +1.4       
15 29.03.17 тихо ()   20000 м    8/8 1000 м 
[Sc]
-6.4 -9.2 80 -6  1026.7  743  308           
18 29.03.17 тихо ()   20000 м    4/4 1000 м 
[Sc]
-9.3 -11.3 85 -9  1027.4  0.2  743  311           
21 29.03.17 тихо ()   20000 м    ясно 
-18 -19.2 90 -18  1029.2  0.6  744  322           
00 30.03.17 тихо ()   20000 м    ясно 
-13.6 -14.2 95 -14  1028.6  0.2  744  317  -18.4      43  равномерный
мокрый или
старый снег
100% 
03 30.03.17 320 (СЗ) 20000 м    ясно 
+2 -7.7 49 +3  1025.1  -1.4  743  298           
06 30.03.17 270 (З) 20000 м    1/1 1000 м 
[Sc]
+6.2 -9.6 31 +7  1022.5  -2  741  293           
09 30.03.17 230 (ЮЗ) 20000 м    1/0 верхняя 
[Ci fib]
+6 -9 33 +7  1021.2  -1.3  740  293           
12 30.03.17 тихо ()   20000 м    3/0 
-5.7 -9.1 77 -6  1021.8  -0.8  740  305    +6.5       
15 30.03.17 тихо ()   20000 м    ясно 
-10.6 -12.6 85 -11  1022.2  -0.3  740  311           
18 30.03.17 тихо ()   20000 м    ясно 
-14.7 -16 90 -15  1022.8  -0.1  739  316           
21 30.03.17 тихо ()   20000 м    10/0 верхняя 
[Cs]
-12 -14 85 -12  1020.2  -2.1  738  312           
Время (UTC), дата Ветер
(°,м/с) 
Видим.   Явления Облачность Т
(°С)
Тd
(°С)
f(%) Тe
(°С)
Pmin
(гПа)
dP
(гПа)
Po
(мм)
O2
(г/м3)
Тmin Tmax R s Состояние
почвы

Для получения пояснительной информации подведите курсор к названию столбца.

ПОГОДА в Буяге - архив

Всё, что Вы хотите узнать о погоде в Буяге - удобно и подробно!

Выберите нужную дату (начиная с 1 января 2015* года) и нажмите кнопку "Найти".
Будут отображены архивные сводки погоды по пункту Буяга, начиная с указанной даты.


Отображать данные в формате CSV (для использования в таблицах Excel)


Внимание! Наш архив погоды предназначен исключительно для личного некоммерческого использования в познавательных целях. Если Вам необходимы официальные справки о состоянии погоды (для производственных, юридических, коммерческих и т.п. целей), обращайтесь в органы Росгидромета.

*Примечание: данная дата относится к архиву по метеостанциям СССР (Россия, СНГ, Балтия).
Архив по метеостанциям Зарубежной Европы и Азии (кроме Китая) хранится 10 дней, по другим регионам земного шара (Китай, Африка, Америка, Австралия, Океания) - 1 день.

Буяга - район местоположения метеостанции


Название, широта, долгота, высота метеостанции:
Буяга 59.6°ш. 127.2°д. 278 м над ур. моря [Российская Федерация]

Дополнительная информация

В oтличие oт бoльшинства пoгoдных сайтoв мы публикуем пoдрoбную метеoинфoрмацию в детальнoм прoфессиoнальнoм фoрмате.

Характеристики температуры и влажнoсти вoздуха измеряются на высoте 2 м в тени вдали oт зданий и деревьев.
Скoрoсть ветра измеряется на высoте 10 м (на урoвне рoста челoвека скoрoсть ветра ниже в 1.5-2 раза). Если метеoстанция нахoдится в гoрoде или в лесу, тo скoрoсть ветра занижена на 2-4 м/с пo сравнению с oткрытым местoм. Скoрoсть ветра над акватoриями крупных рек и oзёр, а также на вершинах хoлмoв на 2-5 м/с выше, чем в oбычных услoвиях.
Атмoсфернoе давление в разных тoчках местнoсти мoжет значительнo oтличаться oт давления на метеoстанции, в зависимoсти oт услoвий рельефа (при пoдъёме на 10 м давление пoнижается примернo на 1 мм рт.ст.).